• In Hungary
  • List of Countries
  • For 7 days
  • Water Temperature
  • Satellite Maps
  • Weather Map
  • News
  • Weather Widgets
  • user-avatar
    Login

    Hourly Weather Sunny Beach

    Today, 19 June, Tuesday

    Time Temperature Precipitation Wind Pressure Humidity
    00:00 +17°C° 0 mm 3 mps 733 mmHg 82%
    01:00 +17°C° 0 mm 3 mps 733 mmHg 82%
    02:00 +17°C° 0 mm 3 mps 733 mmHg 82%
    03:00 +17°C° 0 mm 3 mps 733 mmHg 81%
    04:00 +16°C° 0 mm 3 mps 733 mmHg 81%
    05:00 +16°C° 0 mm 3 mps 733 mmHg 80%
    06:00 +18°C° 0 mm 4 mps 734 mmHg 71%
    07:00 +21°C° 0 mm 5 mps 734 mmHg 61%
    08:00 +23°C° 0 mm 5 mps 734 mmHg 52%
    09:00 +24°C° 0 mm 6 mps 735 mmHg 48%
    10:00 +27°C° 0 mm 6 mps 735 mmHg 44%
    11:00 +28°C° 0 mm 7 mps 735 mmHg 40%
    12:00 +29°C° 0 mm 7 mps 735 mmHg 39%
    13:00 +29°C° 0 mm 7 mps 735 mmHg 38%
    14:00 +29°C° 0 mm 7 mps 735 mmHg 38%
    15:00 +29°C° 0 mm 7 mps 735 mmHg 39%
    16:00 +28°C° 0 mm 7 mps 735 mmHg 40%
    17:00 +28°C° 0 mm 6 mps 735 mmHg 41%
    18:00 +26°C° 0 mm 6 mps 735 mmHg 48%
    19:00 +23°C° 0 mm 5 mps 735 mmHg 55%
    20:00 +21°C° 0 mm 4 mps 735 mmHg 62%
    21:00 +20°C° 0 mm 3 mps 736 mmHg 68%
    22:00 +19°C° 0 mm 3 mps 736 mmHg 74%
    23:00 +18°C° 0 mm 3 mps 736 mmHg 80%

    Tomorrow, 20 June, Wednesday

    Time Temperature Precipitation Wind Pressure Humidity
    00:00 +18°C° 0 mm 3 mps 736 mmHg 80%
    01:00 +18°C° 0 mm 3 mps 736 mmHg 80%
    02:00 +17°C° 0 mm 3 mps 736 mmHg 80%
    03:00 +17°C° 0 mm 3 mps 736 mmHg 77%
    04:00 +17°C° 0 mm 3 mps 736 mmHg 74%
    05:00 +17°C° 0 mm 4 mps 736 mmHg 71%
    06:00 +19°C° 0 mm 4 mps 736 mmHg 64%
    07:00 +21°C° 0 mm 5 mps 737 mmHg 57%
    08:00 +23°C° 0 mm 5 mps 737 mmHg 50%
    09:00 +26°C° 0 mm 6 mps 737 mmHg 45%
    10:00 +28°C° 0 mm 6 mps 737 mmHg 40%
    11:00 +29°C° 0 mm 6 mps 738 mmHg 35%
    12:00 +30°C° 0 mm 6 mps 738 mmHg 35%
    13:00 +30°C° 0 mm 6 mps 737 mmHg 34%
    14:00 +32°C° 0 mm 6 mps 737 mmHg 34%
    15:00 +30°C° 0 mm 6 mps 737 mmHg 35%
    16:00 +29°C° 0 mm 6 mps 737 mmHg 37%
    17:00 +29°C° 0 mm 6 mps 737 mmHg 39%
    18:00 +26°C° 0 mm 5 mps 737 mmHg 47%
    19:00 +23°C° 0 mm 4 mps 737 mmHg 56%
    20:00 +21°C° 0 mm 3 mps 737 mmHg 65%
    21:00 +20°C° 0 mm 3 mps 737 mmHg 69%
    22:00 +19°C° 0 mm 3 mps 737 mmHg 74%
    23:00 +18°C° 0 mm 2 mps 737 mmHg 78%

    Day after tomorrow, 21 June, Thursday

    Time Temperature Precipitation Wind Pressure Humidity
    00:00 +18°C° 0 mm 2 mps 737 mmHg 77%
    01:00 +18°C° 0 mm 2 mps 737 mmHg 77%
    02:00 +17°C° 0 mm 2 mps 737 mmHg 76%
    03:00 +17°C° 0 mm 2 mps 736 mmHg 75%
    04:00 +17°C° 0 mm 3 mps 736 mmHg 74%
    05:00 +17°C° 0 mm 3 mps 736 mmHg 73%
    06:00 +19°C° 0 mm 3 mps 736 mmHg 65%
    07:00 +22°C° 0 mm 3 mps 736 mmHg 58%
    08:00 +25°C° 0 mm 4 mps 736 mmHg 50%
    09:00 +27°C° 0 mm 4 mps 736 mmHg 46%
    10:00 +28°C° 0 mm 4 mps 736 mmHg 41%
    11:00 +30°C° 0 mm 4 mps 736 mmHg 37%
    12:00 +30°C° 0 mm 4 mps 736 mmHg 36%
    13:00 +32°C° 0 mm 4 mps 735 mmHg 35%
    14:00 +32°C° 0 mm 4 mps 735 mmHg 34%
    15:00 +32°C° 0 mm 4 mps 735 mmHg 36%
    16:00 +30°C° 0 mm 4 mps 734 mmHg 38%
    17:00 +30°C° 0 mm 4 mps 734 mmHg 40%
    18:00 +28°C° 0 mm 3 mps 734 mmHg 49%
    19:00 +25°C° 0 mm 3 mps 734 mmHg 57%
    20:00 +23°C° 0 mm 2 mps 734 mmHg 65%
    21:00 +21°C° 0 mm 2 mps 734 mmHg 68%
    22:00 +21°C° 0 mm 1 mps 734 mmHg 71%
    23:00 +20°C° 0 mm 1 mps 734 mmHg 74%

    22 June, Friday

    Time Temperature Precipitation Wind Pressure Humidity
    00:00 +20°C° 0 mm 1 mps 734 mmHg 74%
    01:00 +20°C° 0 mm 1 mps 734 mmHg 75%
    02:00 +19°C° 0 mm 1 mps 733 mmHg 75%
    03:00 +19°C° 0 mm 1 mps 733 mmHg 74%
    04:00 +19°C° 0 mm 1 mps 733 mmHg 74%
    05:00 +19°C° 0 mm 1 mps 733 mmHg 73%
    06:00 +21°C° 0 mm 1 mps 733 mmHg 66%
    07:00 +24°C° 0 mm 1 mps 733 mmHg 58%
    08:00 +26°C° 0 mm 1 mps 733 mmHg 50%
    09:00 +28°C° 0 mm 1 mps 733 mmHg 46%
    10:00 +30°C° 0 mm 1 mps 733 mmHg 42%
    11:00 +32°C° 0 mm 1 mps 733 mmHg 38%
    12:00 +32°C° 0 mm 1 mps 732 mmHg 38%
    13:00 +32°C° 0 mm 2 mps 732 mmHg 37%
    14:00 +32°C° 0 mm 2 mps 732 mmHg 37%
    15:00 +32°C° 0 mm 2 mps 731 mmHg 38%
    16:00 +31°C° 0 mm 2 mps 731 mmHg 40%
    17:00 +30°C° 0 mm 3 mps 731 mmHg 42%
    18:00 +29°C° 0 mm 3 mps 731 mmHg 46%
    19:00 +27°C° 0 mm 3 mps 731 mmHg 50%
    20:00 +26°C° 0 mm 3 mps 731 mmHg 54%
    21:00 +25°C° 0.1 mm 2 mps 731 mmHg 58%
    22:00 +24°C° 0.1 mm 2 mps 731 mmHg 62%
    23:00 +23°C° 0.1 mm 2 mps 731 mmHg 65%

    23 June, Saturday

    Time Temperature Precipitation Wind Pressure Humidity
    00:00 +21°C° 0.4 mm 2 mps 731 mmHg 71%
    01:00 +20°C° 0.4 mm 3 mps 731 mmHg 76%
    02:00 +19°C° 0.4 mm 3 mps 731 mmHg 81%
    03:00 +19°C° 0.5 mm 4 mps 731 mmHg 83%
    04:00 +17°C° 0.5 mm 5 mps 732 mmHg 86%
    05:00 +17°C° 0.5 mm 6 mps 732 mmHg 88%
    06:00 +17°C° 0.2 mm 6 mps 732 mmHg 84%
    07:00 +18°C° 0.2 mm 7 mps 733 mmHg 80%
    08:00 +18°C° 0.2 mm 7 mps 734 mmHg 77%
    09:00 +20°C° 0 mm 7 mps 734 mmHg 70%
    10:00 +21°C° 0 mm 7 mps 735 mmHg 64%
    11:00 +22°C° 0 mm 8 mps 735 mmHg 57%
    12:00 +23°C° 0 mm 7 mps 735 mmHg 55%
    13:00 +23°C° 0 mm 7 mps 735 mmHg 53%
    14:00 +24°C° 0 mm 6 mps 736 mmHg 51%
    15:00 +23°C° 0 mm 6 mps 736 mmHg 53%
    16:00 +23°C° 0 mm 6 mps 736 mmHg 54%
    17:00 +22°C° 0 mm 6 mps 736 mmHg 56%
    18:00 +20°C° 0.2 mm 5 mps 737 mmHg 63%
    19:00 +19°C° 0.2 mm 5 mps 737 mmHg 69%
    20:00 +17°C° 0.2 mm 4 mps 737 mmHg 76%
    21:00 +17°C° 0.3 mm 4 mps 737 mmHg 77%
    22:00 +16°C° 0.3 mm 3 mps 737 mmHg 78%
    23:00 +16°C° 0.3 mm 3 mps 737 mmHg 79%

    24 June, Sunday

    Time Temperature Precipitation Wind Pressure Humidity
    00:00 +16°C° 0 mm 3 mps 737 mmHg 80%
    01:00 +14°C° 0 mm 3 mps 737 mmHg 80%
    02:00 +14°C° 0 mm 3 mps 737 mmHg 80%
    03:00 +14°C° 0 mm 3 mps 737 mmHg 81%
    04:00 +13°C° 0 mm 3 mps 737 mmHg 82%
    05:00 +13°C° 0 mm 3 mps 737 mmHg 82%
    06:00 +15°C° 0 mm 4 mps 738 mmHg 77%
    07:00 +18°C° 0 mm 4 mps 738 mmHg 72%
    08:00 +19°C° 0 mm 5 mps 738 mmHg 66%
    09:00 +21°C° 0 mm 5 mps 738 mmHg 62%
    10:00 +22°C° 0 mm 5 mps 738 mmHg 58%
    11:00 +23°C° 0 mm 5 mps 738 mmHg 53%
    12:00 +23°C° 0 mm 5 mps 738 mmHg 52%
    13:00 +25°C° 0 mm 5 mps 738 mmHg 51%
    14:00 +25°C° 0 mm 5 mps 738 mmHg 49%
    15:00 +25°C° 0 mm 5 mps 738 mmHg 51%
    16:00 +25°C° 0 mm 5 mps 737 mmHg 52%
    17:00 +23°C° 0 mm 5 mps 737 mmHg 53%
    18:00 +21°C° 0 mm 5 mps 737 mmHg 60%
    19:00 +20°C° 0 mm 4 mps 738 mmHg 68%
    20:00 +18°C° 0 mm 4 mps 738 mmHg 75%
    21:00 +17°C° 0 mm 3 mps 738 mmHg 79%
    22:00 +17°C° 0 mm 3 mps 738 mmHg 83%
    23:00 +16°C° 0 mm 3 mps 738 mmHg 87%
    Show more